Location: Apeadero de Los Molinos-Guadarrama
(40.7091°N, 4.0689°W)
Time: 13:31:21
(UTC+00:00)

Cosmos 2154 Rocket - Pass Details

Date: 14 May 2021
Orbit: 965 x 997 km, 82.9° (Epoch: 18 June)

Event Time Altitude Azimuth Distance (km) Brightness Sun altitude
Rises 22:20:39 0° 348° (NNW) 3,712 8.2 -25.0°
Reaches altitude 10° 22:23:13 10° 345° (NNW) 2,755 7.3 -25.2°
Maximum altitude 22:29:23 57° 268° (W) 1,143 4.4 -25.8°
Enters shadow 22:31:20 41° 214° (SW) 1,391 4.5 -25.9°
